Weather in Adzhamka

Ukraine / Kirovohrad Region     48°32′19″N   32°32′05″E
temp.,
°C
wind,
m/s
gust,
m/s
humid.,
%
clouds,
%
prec.,
mm/h
press.,
hPa
HPBL,
m
15 april, thu
thu1500:00+9se367987 0.0 1013117
03:00+8se3680100 0.0 1013196
06:00+8ese3783100 0.4 1012319
09:00+9ese458291 1.4 1012461
12:00+12se456592 0.3 10111218
15:00+13sse5558100 0.8 10111238
18:00+11s3364100 0.1 1011922
21:00+8s358769 0.3 1011105
16 april, fri
fri1600:00+7ssw3691100 0.0 1011147
03:00+6ssw479652 0.0 1012146
06:00+6ssw5795100 0.0 1012304
09:00+8ssw5791100 0.3 1013452
12:00+8wsw7785100 0.8 1014930
15:00+6sw5789100 3.7 1016814
18:00+4wsw4695100 0.1 1016656
21:00+4wsw4696100 0.6 1018791
17 april, sat
sat1700:00+3w4596100 0.1 1019562
03:00+4wsw3797100 0.4 1020659
06:00+5w3789100 0.1 1020581
09:00+7w357389 0.1 1021590
12:00+10sw566496 0.1 10221321
15:00+11sw5660100 0.4 10211320
18:00+11sw4666100 0.3 1020491
21:00+9sw137299 0.5 102156
18 april, sun
sun1800:00+7nnw238635 0.0 102180
03:00+5n339583 0.0 102054
06:00+4n229654 0.0 102032
09:00+8n117953 0.0 1020340
12:00+12wnw225823 0.0 10191167
15:00+13nnw2249100 0.1 10191602
18:00+13nne2257100 0.0 1019152
21:00+11ne3464100 0.0 101994
19 april, mon
mon1900:00+9ne3565100 0.0 101983
03:00+8ene336888 0.0 101934
06:00+7ene3474100 0.0 101980
09:00+10ene4663100 0.0 1018419
12:00+14ene5549100 0.0 10171640
15:00+15ene7743100 0.0 10151903
18:00+14ene81053100 0.0 10131672
21:00+11ene81556100 0.0 1011785